QPF
0.01 0.01 0.01 0.01 0.01 0.01 0.01 0.01 0.01 0.01 0.01 0.01 0.01 0.02 0.02 0.02 0.02 0.02 0.01 0.01 0.02 0.02 0.01 0.01 0.00 0.01 0.00 0.01 0.01 0.01 0.00 0.00 0.01 0.02 0.02 0.04 0.06 0.03 0.02 0.02 0.02 0.02 0.04
0.00 0.00 0.00 0.00 0.01 0.01 0.01 0.01 0.02 0.02 0.01 0.01 0.01 0.01 0.01 0.01 0.01 0.01 0.01 0.01 0.02 0.02 0.01 0.01 0.00 0.00 0.00 0.01 0.01 0.01 0.01 0.01 0.02 0.02 0.02 0.02 0.03 0.03 0.02 0.01 0.01 0.01 0.01
0.00 0.00 0.00 0.00 0.01 0.01 0.01 0.01 0.02 0.02 0.01 0.01 0.01 0.01 0.01 0.01 0.00 0.01 0.01 0.01 0.02 0.01 0.01 0.01 0.01 0.01 0.00 0.01 0.01 0.01 0.01 0.01 0.02 0.02 0.02 0.01 0.01 0.02 0.02 0.01 0.01 0.01 0.01
0.00 0.00 0.00 0.00 0.00 0.00 0.01 0.01 0.01 0.01 0.01 0.01 0.00 0.01 0.00 0.00 0.00 0.00 0.01 0.01 0.02 0.02 0.02 0.02 0.02 0.02 0.02 0.01 0.01 0.01 0.01 0.02 0.02 0.01 0.01 0.01 0.01 0.01 0.01 0.01 0.01 0.01 0.00
0.01 0.01 0.01 0.00 0.00 0.00 0.00 0.01 0.01 0.01 0.01 0.01 0.01 0.00 0.00 0.00 0.00 0.00 0.01 0.01 0.02 0.03 0.03 0.02 0.02 0.02 0.02 0.02 0.02 0.02 0.02 0.03 0.03 0.03 0.03 0.02 0.02 0.01 0.01 0.00 0.00 0.00 0.00
0.00 0.00 0.01 0.01 0.00 0.00 0.00 0.00 0.00 0.00 0.02 0.01 0.01 0.01 0.01 0.00 0.00 0.00 0.00 0.01 0.02 0.03 0.03 0.03 0.03 0.03 0.02 0.02 0.02 0.02 0.03 0.04 0.03 0.03 0.03 0.03 0.02 0.02 0.01 0.01 0.00 0.00 0.00
0.00 0.00 0.00 0.00 0.00 0.00 0.00 0.00 0.00 0.00 0.01 0.01 0.01 0.01 0.01 0.01 0.01 0.01 0.00 0.01 0.01 0.02 0.02 0.01 0.02 0.02 0.03 0.03 0.03 0.02 0.03 0.03 0.03 0.03 0.03 0.03 0.02 0.02 0.03 0.02 0.02 0.01 0.00
0.00 0.00 0.00 0.00 0.00 0.01 0.01 0.00 0.00 0.00 0.00 0.00 0.00 0.01 0.01 0.01 0.00 0.00 0.01 0.01 0.01 0.01 0.01 0.01 0.01 0.01 0.01 0.02 0.02 0.03 0.04 0.03 0.02 0.03 0.03 0.03 0.03 0.02 0.03 0.03 0.03 0.02 0.01
0.00 0.00 0.00 0.00 0.01 0.01 0.01 0.00 0.00 0.00 0.00 0.00 0.00 0.01 0.01 0.01 0.00 0.00 0.00 0.00 0.01 0.01 0.01 0.01 0.00 0.01 0.01 0.01 0.01 0.02 0.03 0.03 0.02 0.02 0.02 0.03 0.03 0.03 0.02 0.02 0.02 0.03 0.02
0.00 0.00 0.00 0.00 0.00 0.01 0.01 0.01 0.01 0.00 0.00 0.01 0.01 0.01 0.01 0.01 0.00 0.00 0.00 0.00 0.01 0.01 0.01 0.01 0.00 0.01 0.01 0.01 0.02 0.02 0.02 0.02 0.01 0.01 0.01 0.02 0.02 0.03 0.03 0.03 0.02 0.03 0.03
0.01 0.00 0.00 0.00 0.00 0.01 0.00 0.00 0.01 0.01 0.01 0.02 0.01 0.01 0.02 0.01 0.01 0.01 0.01 0.01 0.01 0.01 0.01 0.01 0.01 0.01 0.01 0.01 0.02 0.02 0.01 0.01 0.01 0.02 0.02 0.03 0.03 0.04 0.05 0.05 0.04 0.04 0.04
0.01 0.01 0.00 0.00 0.00 0.00 0.00 0.00 0.00 0.01 0.02 0.02 0.02 0.01 0.02 0.01 0.01 0.01 0.01 0.01 0.01 0.01 0.01 0.02 0.03 0.02 0.01 0.01 0.01 0.01 0.01 0.01 0.01 0.01 0.02 0.03 0.04 0.04 0.05 0.07 0.08 0.07 0.07
0.01 0.01 0.00 0.00 0.00 0.00 0.00 0.00 0.00 0.01 0.01 0.02 0.02 0.01 0.01 0.01 0.01 0.01 0.02 0.01 0.01 0.02 0.02 0.02 0.02 0.01 0.01 0.01 0.01 0.01 0.01 0.01 0.01 0.01 0.01 0.02 0.03 0.03 0.04 0.06 0.09 0.09 0.09
0.00 0.00 0.00 0.00 0.00 0.00 0.00 0.00 0.01 0.01 0.01 0.01 0.01 0.01 0.01 0.01 0.01 0.01 0.01 0.01 0.01 0.01 0.02 0.01 0.01 0.01 0.01 0.01 0.02 0.01 0.01 0.01 0.01 0.01 0.01 0.01 0.02 0.03 0.03 0.04 0.06 0.08 0.08
0.01 0.01 0.00 0.00 0.01 0.01 0.01 0.01 0.01 0.02 0.01 0.01 0.01 0.01 0.01 0.01 0.01 0.01 0.01 0.02 0.02 0.01 0.01 0.01 0.01 0.01 0.01 0.01 0.01 0.01 0.01 0.01 0.01 0.01 0.01 0.01 0.01 0.03 0.04 0.04 0.05 0.08 0.09
0.01 0.01 0.01 0.01 0.00 0.01 0.01 0.02 0.02 0.02 0.01 0.01 0.01 0.01 0.01 0.01 0.01 0.01 0.01 0.02 0.03 0.02 0.01 0.01 0.01 0.01 0.01 0.01 0.01 0.01 0.01 0.01 0.02 0.02 0.01 0.01 0.01 0.03 0.02 0.04 0.05 0.07 0.09
0.02 0.02 0.01 0.01 0.01 0.02 0.02 0.01 0.01 0.02 0.01 0.01 0.01 0.01 0.01 0.01 0.01 0.01 0.02 0.02 0.02 0.02 0.01 0.01 0.01 0.00 0.01 0.01 0.01 0.01 0.01 0.01 0.02 0.02 0.01 0.01 0.01 0.01 0.01 0.03 0.04 0.06 0.06
0.01 0.01 0.01 0.01 0.02 0.02 0.02 0.01 0.02 0.02 0.02 0.01 0.01 0.01 0.01 0.01 0.01 0.01 0.02 0.02 0.02 0.01 0.01 0.01 0.01 0.01 0.01 0.02 0.01 0.01 0.01 0.01 0.01 0.02 0.02 0.01 0.01 0.01 0.01 0.03 0.03 0.03 0.04
0.01 0.02 0.01 0.01 0.02 0.02 0.03 0.02 0.02 0.02 0.02 0.02 0.02 0.02 0.02 0.02 0.01 0.01 0.01 0.02 0.02 0.01 0.01 0.01 0.01 0.02 0.02 0.02 0.02 0.01 0.00 0.00 0.01 0.02 0.02 0.01 0.01 0.01 0.02 0.02 0.02 0.02 0.03
0.01 0.01 0.01 0.01 0.02 0.02 0.02 0.03 0.03 0.02 0.02 0.02 0.02 0.02 0.02 0.02 0.02 0.01 0.02 0.02 0.02 0.01 0.01 0.01 0.01 0.02 0.02 0.02 0.02 0.01 0.00 0.00 0.01 0.01 0.03 0.03 0.02 0.03 0.02 0.02 0.01 0.01 0.02
0.01 0.01 0.01 0.01 0.02 0.02 0.02 0.02 0.02 0.02 0.02 0.02 0.02 0.02 0.01 0.01 0.01 0.01 0.02 0.02 0.02 0.02 0.02 0.01 0.01 0.01 0.01 0.01 0.02 0.01 0.01 0.01 0.01 0.01 0.02 0.02 0.03 0.03 0.02 0.02 0.01 0.01 0.02
0.00 0.01 0.01 0.01 0.01 0.02 0.02 0.02 0.02 0.02 0.03 0.02 0.02 0.02 0.02 0.01 0.01 0.01 0.01 0.01 0.01 0.01 0.01 0.01 0.01 0.01 0.01 0.01 0.01 0.01 0.01 0.01 0.01 0.01 0.01 0.02 0.02 0.01 0.01 0.01 0.01 0.02 0.03
0.00 0.01 0.01 0.01 0.01 0.01 0.02 0.02 0.02 0.03 0.03 0.03 0.02 0.02 0.02 0.01 0.02 0.02 0.01 0.01 0.01 0.01 0.01 0.01 0.00 0.01 0.01 0.01 0.01 0.01 0.01 0.01 0.01 0.01 0.01 0.02 0.02 0.02 0.01 0.01 0.01 0.01 0.02
0.01 0.01 0.01 0.00 0.00 0.00 0.00 0.01 0.02 0.02 0.02 0.02 0.02 0.02 0.01 0.01 0.02 0.02 0.02 0.02 0.02 0.01 0.01 0.01 0.01 0.01 0.01 0.00 0.01 0.01 0.01 0.01 0.01 0.01 0.01 0.01 0.02 0.02 0.01 0.01 0.01 0.01 0.01
0.02 0.01 0.01 0.01 0.01 0.01 0.01 0.01 0.02 0.03 0.03 0.02 0.02 0.01 0.01 0.02 0.01 0.01 0.01 0.02 0.02 0.02 0.01 0.01 0.01 0.01 0.01 0.01 0.01 0.01 0.01 0.01 0.01 0.01 0.01 0.02 0.01 0.02 0.01 0.01 0.01 0.01 0.01
0.02 0.02 0.02 0.02 0.02 0.02 0.01 0.01 0.02 0.03 0.04 0.03 0.02 0.02 0.01 0.01 0.01 0.01 0.01 0.02 0.01 0.01 0.01 0.01 0.01 0.01 0.01 0.01 0.01 0.01 0.01 0.01 0.01 0.01 0.01 0.02 0.02 0.01 0.01 0.01 0.00 0.01 0.01
MSLP
1018.65 1018.61 1018.57 1018.52 1018.50 1018.50 1018.55 1018.66 1018.83 1019.05 1019.30 1019.54 1019.76 1019.93 1020.04 1020.08 1020.06 1020.02 1019.96 1019.92 1019.91 1019.95 1020.04 1020.16 1020.32 1020.49 1020.66 1020.83 1020.98 1021.12 1021.25 1021.37 1021.49 1021.61 1021.71 1021.79 1021.84 1021.83 1021.76 1021.62 1021.41 1021.11 1020.73
1018.46 1018.53 1018.57 1018.57 1018.55 1018.54 1018.57 1018.65 1018.81 1019.03 1019.31 1019.60 1019.87 1020.08 1020.22 1020.26 1020.23 1020.14 1020.03 1019.94 1019.89 1019.90 1019.97 1020.11 1020.27 1020.46 1020.63 1020.79 1020.93 1021.04 1021.14 1021.24 1021.34 1021.46 1021.58 1021.70 1021.81 1021.88 1021.90 1021.86 1021.74 1021.53 1021.24
1018.05 1018.23 1018.37 1018.44 1018.46 1018.46 1018.46 1018.53 1018.67 1018.90 1019.20 1019.54 1019.86 1020.13 1020.31 1020.38 1020.35 1020.24 1020.10 1019.97 1019.88 1019.86 1019.91 1020.02 1020.19 1020.37 1020.55 1020.70 1020.82 1020.92 1021.00 1021.07 1021.17 1021.28 1021.42 1021.58 1021.74 1021.88 1021.99 1022.04 1022.01 1021.91 1021.70
1017.43 1017.74 1017.99 1018.15 1018.22 1018.24 1018.25 1018.30 1018.44 1018.67 1018.99 1019.37 1019.75 1020.07 1020.31 1020.42 1020.41 1020.31 1020.16 1020.00 1019.87 1019.81 1019.83 1019.93 1020.07 1020.24 1020.41 1020.56 1020.67 1020.76 1020.83 1020.89 1020.98 1021.09 1021.24 1021.42 1021.61 1021.81 1021.97 1022.10 1022.17 1022.15 1022.05
1016.69 1017.11 1017.48 1017.74 1017.88 1017.93 1017.95 1018.00 1018.13 1018.36 1018.70 1019.11 1019.54 1019.92 1020.21 1020.38 1020.41 1020.34 1020.18 1020.01 1019.85 1019.76 1019.74 1019.80 1019.92 1020.07 1020.22 1020.36 1020.48 1020.56 1020.63 1020.69 1020.77 1020.87 1021.01 1021.19 1021.38 1021.59 1021.80 1021.98 1022.12 1022.19 1022.19
1015.90 1016.44 1016.92 1017.27 1017.49 1017.59 1017.63 1017.68 1017.80 1018.03 1018.37 1018.79 1019.25 1019.69 1020.03 1020.26 1020.34 1020.29 1020.15 1019.97 1019.80 1019.67 1019.62 1019.64 1019.73 1019.85 1019.99 1020.13 1020.24 1020.32 1020.39 1020.45 1020.51 1020.59 1020.70 1020.85 1021.02 1021.22 1021.43 1021.64 1021.83 1021.99 1022.09
1015.15 1015.78 1016.36 1016.82 1017.11 1017.26 1017.32 1017.37 1017.48 1017.69 1018.02 1018.45 1018.92 1019.38 1019.77 1020.04 1020.16 1020.15 1020.04 1019.87 1019.68 1019.53 1019.45 1019.43 1019.48 1019.59 1019.71 1019.84 1019.95 1020.04 1020.11 1020.15 1020.19 1020.24 1020.30 1020.39 1020.52 1020.68 1020.87 1021.09 1021.33 1021.56 1021.77
1014.48 1015.19 1015.86 1016.39 1016.75 1016.95 1017.04 1017.10 1017.19 1017.38 1017.68 1018.09 1018.55 1019.02 1019.43 1019.73 1019.88 1019.91 1019.82 1019.66 1019.47 1019.31 1019.20 1019.16 1019.19 1019.28 1019.39 1019.52 1019.63 1019.72 1019.78 1019.81 1019.82 1019.83 1019.83 1019.86 1019.92 1020.02 1020.19 1020.41 1020.68 1020.99 1021.31
1013.92 1014.68 1015.41 1016.00 1016.42 1016.66 1016.77 1016.84 1016.92 1017.08 1017.35 1017.72 1018.16 1018.61 1019.01 1019.31 1019.49 1019.53 1019.47 1019.33 1019.16 1019.00 1018.88 1018.83 1018.85 1018.93 1019.04 1019.17 1019.29 1019.38 1019.44 1019.45 1019.43 1019.39 1019.34 1019.30 1019.30 1019.35 1019.48 1019.70 1020.00 1020.38 1020.81
1013.46 1014.24 1014.99 1015.62 1016.07 1016.34 1016.49 1016.56 1016.64 1016.78 1017.01 1017.34 1017.73 1018.14 1018.52 1018.81 1018.98 1019.04 1019.00 1018.88 1018.73 1018.59 1018.49 1018.45 1018.48 1018.56 1018.68 1018.81 1018.94 1019.04 1019.10 1019.10 1019.07 1018.99 1018.90 1018.81 1018.76 1018.77 1018.88 1019.09 1019.43 1019.87 1020.40
1013.06 1013.82 1014.56 1015.19 1015.66 1015.96 1016.13 1016.22 1016.30 1016.43 1016.64 1016.93 1017.27 1017.63 1017.97 1018.23 1018.39 1018.45 1018.42 1018.33 1018.21 1018.10 1018.04 1018.03 1018.08 1018.18 1018.33 1018.48 1018.62 1018.74 1018.80 1018.81 1018.77 1018.68 1018.57 1018.46 1018.38 1018.37 1018.47 1018.70 1019.06 1019.56 1020.15
1012.67 1013.37 1014.07 1014.67 1015.13 1015.45 1015.65 1015.77 1015.88 1016.02 1016.22 1016.49 1016.79 1017.10 1017.39 1017.61 1017.75 1017.81 1017.79 1017.72 1017.65 1017.59 1017.56 1017.60 1017.69 1017.83 1018.01 1018.19 1018.36 1018.49 1018.57 1018.60 1018.57 1018.49 1018.39 1018.28 1018.21 1018.20 1018.31 1018.55 1018.93 1019.45 1020.08
1012.24 1012.85 1013.46 1014.02 1014.46 1014.79 1015.02 1015.19 1015.35 1015.53 1015.75 1016.00 1016.28 1016.56 1016.80 1016.99 1017.10 1017.15 1017.15 1017.11 1017.08 1017.07 1017.10 1017.19 1017.34 1017.52 1017.73 1017.94 1018.14 1018.30 1018.41 1018.46 1018.46 1018.41 1018.34 1018.26 1018.22 1018.24 1018.36 1018.60 1018.98 1019.50 1020.14
1011.70 1012.20 1012.71 1013.20 1013.61 1013.95 1014.22 1014.46 1014.69 1014.93 1015.19 1015.47 1015.75 1016.01 1016.23 1016.39 1016.48 1016.52 1016.53 1016.53 1016.54 1016.58 1016.68 1016.83 1017.02 1017.25 1017.50 1017.74 1017.96 1018.15 1018.29 1018.37 1018.41 1018.41 1018.38 1018.35 1018.34 1018.39 1018.53 1018.77 1019.14 1019.63 1020.23
1011.01 1011.38 1011.79 1012.20 1012.58 1012.93 1013.25 1013.57 1013.89 1014.22 1014.55 1014.88 1015.19 1015.45 1015.66 1015.80 1015.89 1015.94 1015.96 1015.99 1016.05 1016.14 1016.29 1016.49 1016.73 1017.00 1017.27 1017.54 1017.78 1017.99 1018.15 1018.27 1018.35 1018.39 1018.42 1018.44 1018.48 1018.57 1018.71 1018.95 1019.28 1019.72 1020.25
1010.12 1010.37 1010.68 1011.02 1011.37 1011.74 1012.12 1012.53 1012.95 1013.38 1013.80 1014.20 1014.55 1014.85 1015.07 1015.22 1015.32 1015.38 1015.43 1015.49 1015.59 1015.73 1015.92 1016.17 1016.44 1016.73 1017.02 1017.30 1017.55 1017.77 1017.95 1018.10 1018.21 1018.30 1018.38 1018.45 1018.54 1018.65 1018.81 1019.03 1019.32 1019.69 1020.13
1009.03 1009.18 1009.40 1009.68 1010.01 1010.41 1010.85 1011.34 1011.87 1012.40 1012.92 1013.40 1013.82 1014.16 1014.41 1014.59 1014.71 1014.80 1014.88 1014.98 1015.12 1015.30 1015.53 1015.80 1016.09 1016.39 1016.69 1016.96 1017.21 1017.44 1017.63 1017.80 1017.94 1018.08 1018.20 1018.32 1018.44 1018.58 1018.74 1018.94 1019.19 1019.49 1019.85
1007.74 1007.82 1007.98 1008.22 1008.55 1008.97 1009.47 1010.04 1010.65 1011.28 1011.89 1012.45 1012.94 1013.33 1013.63 1013.85 1014.01 1014.14 1014.26 1014.40 1014.57 1014.79 1015.04 1015.33 1015.63 1015.93 1016.22 1016.49 1016.73 1016.95 1017.15 1017.33 1017.51 1017.68 1017.84 1018.00 1018.17 1018.33 1018.50 1018.69 1018.90 1019.15 1019.44
1006.35 1006.38 1006.51 1006.73 1007.05 1007.49 1008.04 1008.66 1009.34 1010.04 1010.72 1011.34 1011.89 1012.34 1012.69 1012.96 1013.17 1013.35 1013.51 1013.69 1013.90 1014.15 1014.42 1014.71 1015.01 1015.30 1015.58 1015.84 1016.07 1016.29 1016.50 1016.70 1016.91 1017.12 1017.33 1017.53 1017.73 1017.92 1018.11 1018.30 1018.50 1018.72 1018.97
1004.95 1004.97 1005.08 1005.29 1005.62 1006.07 1006.63 1007.28 1007.99 1008.73 1009.44 1010.10 1010.69 1011.18 1011.59 1011.91 1012.17 1012.39 1012.61 1012.83 1013.08 1013.34 1013.63 1013.92 1014.21 1014.50 1014.76 1015.01 1015.24 1015.47 1015.70 1015.93 1016.18 1016.43 1016.69 1016.94 1017.19 1017.42 1017.64 1017.84 1018.05 1018.26 1018.50
1003.70 1003.71 1003.81 1004.02 1004.34 1004.78 1005.34 1005.98 1006.68 1007.41 1008.12 1008.79 1009.39 1009.91 1010.35 1010.72 1011.02 1011.30 1011.56 1011.82 1012.09 1012.38 1012.67 1012.96 1013.24 1013.52 1013.78 1014.03 1014.27 1014.52 1014.78 1015.06 1015.35 1015.66 1015.97 1016.28 1016.58 1016.86 1017.11 1017.35 1017.58 1017.81 1018.07
1002.71 1002.72 1002.82 1003.02 1003.33 1003.74 1004.26 1004.86 1005.51 1006.19 1006.87 1007.51 1008.09 1008.61 1009.07 1009.46 1009.81 1010.12 1010.42 1010.71 1011.00 1011.29 1011.58 1011.86 1012.14 1012.41 1012.67 1012.93 1013.19 1013.47 1013.78 1014.11 1014.46 1014.83 1015.20 1015.57 1015.92 1016.25 1016.55 1016.83 1017.10 1017.36 1017.64
1002.08 1002.10 1002.19 1002.38 1002.65 1003.02 1003.47 1004.00 1004.57 1005.17 1005.77 1006.35 1006.90 1007.40 1007.84 1008.25 1008.61 1008.95 1009.26 1009.57 1009.86 1010.15 1010.43 1010.70 1010.96 1011.22 1011.48 1011.76 1012.05 1012.37 1012.72 1013.11 1013.52 1013.95 1014.38 1014.81 1015.21 1015.58 1015.92 1016.24 1016.55 1016.85 1017.17
1001.86 1001.88 1001.96 1002.11 1002.34 1002.65 1003.02 1003.45 1003.93 1004.43 1004.93 1005.43 1005.91 1006.36 1006.78 1007.17 1007.53 1007.87 1008.18 1008.48 1008.76 1009.03 1009.29 1009.53 1009.78 1010.02 1010.28 1010.57 1010.88 1011.24 1011.64 1012.07 1012.54 1013.01 1013.49 1013.96 1014.39 1014.80 1015.18 1015.52 1015.86 1016.19 1016.54
1002.02 1002.02 1002.08 1002.20 1002.38 1002.62 1002.91 1003.24 1003.61 1004.00 1004.40 1004.81 1005.21 1005.59 1005.97 1006.32 1006.66 1006.97 1007.26 1007.53 1007.78 1008.01 1008.22 1008.43 1008.64 1008.87 1009.12 1009.40 1009.73 1010.11 1010.54 1011.00 1011.50 1012.00 1012.50 1012.98 1013.43 1013.85 1014.24 1014.60 1014.95 1015.31 1015.68
1002.48 1002.46 1002.50 1002.58 1002.71 1002.88 1003.09 1003.33 1003.60 1003.88 1004.18 1004.50 1004.82 1005.13 1005.44 1005.75 1006.03 1006.30 1006.54 1006.76 1006.96 1007.13 1007.29 1007.45 1007.61 1007.80 1008.03 1008.30 1008.62 1009.00 1009.43 1009.89 1010.39 1010.89 1011.38 1011.85 1012.29 1012.70 1013.07 1013.43 1013.78 1014.14 1014.53
Thickness
5720 5720 5719 5718 5715 5713 5710 5708 5706 5704 5702 5700 5697 5695 5694 5694 5694 5694 5694 5693 5692 5691 5690 5689 5687 5686 5685 5684 5683 5682 5680 5678 5678 5677 5675 5676 5677 5677 5678 5679 5679 5680 5680
5717 5717 5717 5715 5713 5711 5709 5707 5705 5703 5701 5699 5697 5695 5693 5692 5691 5691 5690 5690 5689 5688 5688 5686 5684 5683 5682 5680 5680 5679 5676 5674 5674 5672 5669 5666 5667 5670 5672 5672 5673 5673 5675
5717 5715 5714 5713 5712 5709 5708 5707 5704 5702 5700 5698 5695 5693 5690 5689 5687 5687 5686 5686 5686 5685 5685 5683 5682 5681 5680 5678 5677 5676 5674 5670 5669 5669 5667 5662 5660 5661 5664 5665 5667 5667 5668
5718 5716 5715 5712 5711 5710 5709 5706 5703 5701 5699 5696 5694 5691 5687 5684 5684 5683 5683 5683 5683 5682 5681 5680 5679 5678 5677 5675 5675 5674 5672 5670 5666 5665 5664 5663 5662 5658 5656 5658 5660 5662 5663
5718 5717 5717 5715 5713 5711 5708 5705 5702 5700 5697 5695 5692 5689 5686 5684 5682 5681 5680 5679 5679 5678 5678 5677 5676 5675 5674 5673 5672 5670 5669 5668 5665 5663 5661 5659 5657 5656 5653 5652 5653 5654 5656
5718 5717 5717 5715 5712 5710 5707 5704 5701 5698 5695 5693 5690 5687 5684 5681 5679 5678 5676 5675 5675 5675 5674 5674 5673 5672 5671 5670 5669 5668 5666 5665 5663 5661 5659 5657 5655 5653 5651 5648 5647 5647 5650
5716 5714 5713 5712 5710 5708 5705 5702 5699 5696 5694 5691 5688 5686 5683 5681 5678 5676 5674 5672 5671 5671 5671 5670 5669 5668 5668 5667 5665 5664 5663 5661 5660 5658 5656 5655 5654 5653 5650 5647 5644 5643 5644
5715 5714 5713 5712 5709 5707 5704 5701 5698 5695 5693 5690 5688 5685 5682 5680 5677 5675 5673 5671 5669 5668 5668 5667 5666 5665 5664 5663 5662 5660 5659 5657 5656 5655 5653 5652 5651 5650 5649 5646 5642 5639 5639
5713 5713 5712 5710 5708 5706 5704 5701 5698 5694 5692 5689 5686 5683 5681 5678 5676 5674 5672 5669 5668 5667 5665 5664 5663 5662 5660 5659 5657 5656 5654 5653 5652 5650 5649 5648 5647 5646 5645 5644 5642 5639 5635
5710 5710 5709 5709 5708 5706 5703 5700 5697 5694 5691 5688 5685 5683 5680 5677 5674 5672 5669 5667 5666 5664 5662 5661 5660 5658 5657 5655 5654 5652 5650 5649 5647 5646 5644 5643 5642 5641 5641 5640 5639 5638 5636
5706 5707 5707 5707 5705 5703 5700 5697 5694 5691 5689 5686 5683 5680 5678 5675 5672 5670 5668 5665 5663 5661 5659 5658 5656 5655 5653 5651 5650 5648 5646 5644 5643 5641 5640 5639 5638 5636 5636 5635 5634 5632 5632
5705 5704 5704 5703 5701 5698 5696 5694 5692 5689 5687 5684 5681 5678 5675 5672 5669 5667 5665 5663 5661 5659 5657 5655 5653 5651 5650 5648 5646 5644 5642 5640 5639 5637 5635 5634 5633 5632 5631 5631 5630 5629 5628
5701 5700 5699 5698 5696 5695 5693 5691 5689 5687 5685 5682 5678 5675 5672 5669 5667 5665 5663 5660 5658 5656 5654 5652 5649 5648 5646 5644 5642 5641 5639 5637 5636 5634 5632 5631 5629 5628 5627 5627 5626 5625 5625
5697 5696 5694 5693 5692 5691 5690 5689 5687 5685 5682 5678 5675 5672 5670 5668 5665 5663 5660 5657 5655 5652 5651 5648 5646 5645 5643 5641 5639 5637 5636 5634 5632 5631 5629 5628 5626 5625 5624 5624 5622 5621 5620
5692 5692 5690 5689 5687 5686 5685 5685 5683 5681 5679 5675 5672 5670 5668 5665 5662 5659 5657 5655 5652 5650 5647 5644 5642 5641 5639 5638 5637 5635 5633 5631 5629 5628 5627 5626 5624 5624 5622 5621 5619 5617 5615
5688 5687 5687 5686 5684 5683 5682 5680 5679 5678 5675 5672 5669 5667 5664 5662 5659 5656 5654 5651 5649 5646 5643 5641 5639 5637 5637 5636 5635 5633 5631 5628 5626 5625 5624 5623 5621 5621 5620 5619 5618 5616 5613
5685 5683 5683 5683 5682 5681 5679 5677 5676 5674 5671 5668 5666 5663 5661 5658 5655 5653 5650 5647 5645 5642 5640 5638 5636 5634 5634 5633 5632 5630 5628 5626 5624 5622 5621 5621 5620 5618 5616 5615 5613 5612 5611
5681 5681 5680 5679 5679 5677 5676 5674 5672 5669 5666 5664 5661 5659 5657 5654 5651 5649 5646 5644 5641 5639 5636 5634 5633 5631 5631 5630 5629 5627 5625 5622 5621 5620 5619 5617 5615 5614 5612 5610 5608 5606 5605
5678 5678 5677 5676 5674 5672 5671 5669 5666 5663 5661 5659 5657 5655 5653 5650 5647 5644 5642 5640 5637 5635 5633 5632 5630 5628 5628 5627 5626 5624 5620 5618 5617 5616 5615 5614 5612 5612 5609 5606 5603 5601 5600
5673 5672 5671 5670 5668 5667 5666 5662 5660 5657 5655 5655 5653 5652 5649 5646 5643 5641 5638 5636 5634 5631 5630 5628 5626 5625 5624 5624 5623 5620 5616 5614 5612 5612 5611 5610 5609 5608 5605 5602 5599 5597 5596
5666 5666 5664 5662 5661 5660 5658 5655 5653 5652 5652 5651 5649 5646 5644 5641 5639 5636 5634 5631 5629 5626 5624 5622 5622 5621 5620 5620 5619 5616 5613 5610 5608 5607 5606 5606 5605 5604 5601 5599 5597 5595 5592
5658 5658 5656 5655 5654 5653 5650 5648 5647 5648 5647 5644 5642 5640 5638 5636 5634 5630 5628 5625 5623 5620 5618 5616 5615 5615 5614 5614 5613 5612 5610 5608 5605 5603 5602 5601 5600 5599 5596 5594 5593 5590 5586
5649 5649 5648 5647 5646 5645 5644 5642 5643 5642 5640 5637 5635 5634 5632 5630 5628 5624 5621 5618 5616 5614 5611 5610 5609 5608 5608 5607 5607 5606 5605 5602 5600 5598 5597 5596 5594 5592 5590 5588 5586 5583 5579
5640 5640 5639 5638 5637 5637 5638 5637 5636 5635 5633 5630 5628 5626 5624 5622 5620 5618 5616 5612 5610 5608 5606 5604 5603 5602 5601 5600 5599 5597 5596 5595 5593 5591 5590 5589 5586 5584 5582 5580 5578 5575 5572
5631 5631 5630 5629 5630 5629 5629 5629 5628 5626 5625 5623 5621 5619 5617 5615 5612 5610 5609 5607 5606 5604 5602 5600 5598 5596 5594 5595 5594 5591 5589 5587 5586 5583 5581 5579 5576 5574 5572 5570 5569 5567 5564
5621 5621 5621 5621 5621 5621 5621 5621 5620 5619 5617 5615 5613 5611 5609 5607 5604 5602 5600 5599 5598 5597 5596 5594 5592 5591 5591 5589 5587 5585 5584 5582 5579 5575 5573 5571 5570 5568 5565 5563 5561 5559 5557